Location: Alphen
(52.1351°N, 4.6549°E)
Time: 01:43:32
(UTC+00:00)

SL-16 R/B - Pass Details

Date: 27 January 2021
Orbit: 842 x 846 km, 71.0° (Epoch: 26 February)

Event Time Altitude Azimuth Distance (km) Brightness Sun altitude
Exits shadow 04:18:31 17° 353° (N) 2,000 4.1 -29.0°
Drops below altitude 10° 04:20:50 10° 15° (NNE) 2,480 4.9 -28.7°
Sets 04:24:00 0° 33° (NNE) 3,419 5.9 -28.2°
